KUIPER-00153

Last updated on Mon Oct 20 2025 00:02:06 GMT+0000 (Coordinated Universal Time)

1 65773U 25217M 25292.27319877 .00027320 00000+0 79840-3 0 9993 2 65773 51.8641 327.9429 0007985 188.1123 171.9735 15.35062831 3666
UTC large
Height (km)
Speed (km/s)
/
Latitude / Longitude
Inclination (degrees)
Orbital Period (minutes)
Azimuth
Elevation
Range (km)
Doppler Factor

Next 0 passes for location: London (51.5072 / 0.1276)

Sorry there are no passes over London.